Location: Unspecified
(0.0000°N, 0.0000°E)
Time: 21:19:25
(UTC-05:00)

CZ-3 Stage 3 - Visible Passes

Search period start: 19 August 2017 00:00
Search period end: 29 August 2017 00:00
Orbit: 429 x 34769 km, 31.0° (Epoch: 18 August)

Date Brightness Start Highest point End Pass type
(mag) Time Alt. Az. Time Alt. Az. Time Alt. Az.
19 Aug 6.5 05:17:17 10° NNW 12:13:45 63° SE 14:44:11 12° SE visible
20 Aug 11.1 12:52:15 10° WNW 14:09:41 26° W 16:51:26 10° W visible
21 Aug 7.5 08:48:24 10° NW 11:13:22 83° NW 18:04:16 36° SSW visible
22 Aug 6.5 05:08:17 10° NNW 12:02:03 63° SE 14:36:23 10° SE visible
23 Aug 11.0 12:43:12 10° WNW 13:59:47 25° W 16:39:44 10° W visible
24 Aug 7.4 08:39:14 10° NW 10:59:25 83° NW 17:56:24 35° S visible
25 Aug 6.5 04:59:17 10° NNW 11:50:22 62° SE 14:27:18 10° SE visible
26 Aug 10.9 12:34:10 10° WNW 13:49:54 25° W 16:28:03 10° W visible
27 Aug 7.4 08:30:03 10° NW 10:45:26 83° NW 17:48:26 35° S visible
28 Aug 6.5 04:50:16 10° NNW 11:38:44 62° SE 14:18:10 10° SE visible
